Sigonella, Italy

3:04 AM CEST on April 28, 2017 (GMT +0200)
Sigonella Mil

Weather History for LICZ - September, 2013

Change the Weather History Date:

Thursday, September 19, 2013

  Actual Average Record
Temperature  
Mean Temperature 74 °F -  
Max Temperature 86 °F 79 °F 100 °F (2015)
Min Temperature 63 °F 59 °F 57 °F (1998)
Cooling Degree Days 10    
Growing Degree Days 24 (Base 50)    
Moisture  
Dew Point 62 °F    
Average Humidity 72    
Maximum Humidity 100    
Minimum Humidity 25    
Precipitation  
Precipitation 0.00 in 0.08 in - ()
Sea Level Pressure  
Sea Level Pressure 29.81 in    
Wind  
Wind Speed 7 mph ()    
Max Wind Speed 15 mph    
Max Gust Speed -    
Visibility 6.5 miles    
Events      
Averages and records for this station are not official NWS values.
T = Trace of Precipitation, MM = Missing Value Source: Averaged Metar Reports

Daily Weather History Graph

Daily Weather History Graph

Search for Another Location

Airport or City:

Trip Planner

Search our weather history database for the weather conditions in past years. The results will help you decide how hot, cold, wet, or windy it might be!

Date:

Astronomy

Sep. 19, 2013 Rise Set
Actual Time 6:45 AM CEST 7:01 PM CEST
Civil Twilight 6:19 AM CEST 7:27 PM CEST
Nautical Twilight 5:48 AM CEST 7:58 PM CEST
Astronomical Twilight 5:17 AM CEST 8:29 PM CEST
Moon 6:51 PM CEST (9/19) 6:34 AM CEST (9/19)
Length of Visible Light 13h 08m
Length of Day
12h 16m
Full, 100% of the Moon is Illuminated
Sep 19
Full
Sep 19
Full
Sep 27
Last Quarter
Oct 5
New
Oct 12
First Quarter

Hourly Weather History & Observations

Time (CEST) Temp. Heat Index Dew Point Humidity Pressure Visibility Wind Dir Wind Speed Gust Speed Precip Events Conditions
12:55 AM 64.4 °F - 64.4 °F 100% 29.80 in 6.2 mi WSW 4.6 mph - N/A   Partly Cloudy
1:55 AM 64.4 °F - 64.4 °F 100% 29.80 in 6.2 mi WSW 6.9 mph - N/A   Partly Cloudy
2:00 AM 65 °F - 64 °F 94% 29.82 in 9 mi WSW 6.9 mph - -   Scattered Clouds
2:55 AM 64.4 °F - 62.6 °F 94% 29.80 in 6.2 mi WNW 6.9 mph - N/A   Partly Cloudy
3:55 AM 64.4 °F - 62.6 °F 94% 29.80 in 6.2 mi WNW 6.9 mph - N/A   Partly Cloudy
4:55 AM 66.2 °F - 62.6 °F 88% 29.80 in 6.2 mi West 9.2 mph - N/A   Partly Cloudy
5:00 AM 65 °F - 62 °F 86% 29.82 in 9 mi West 9.2 mph - -   Scattered Clouds
5:55 AM 66.2 °F - 60.8 °F 83% 29.80 in 6.2 mi WNW 6.9 mph - N/A   Partly Cloudy
6:55 AM 66.2 °F - 60.8 °F 83% 29.80 in 6.2 mi NW 9.2 mph - N/A   Partly Cloudy
7:55 AM 66.2 °F - 62.6 °F 88% 29.80 in 6.2 mi WNW 9.2 mph - N/A   Partly Cloudy
8:00 AM 66 °F - 62 °F 82% 29.82 in 12 mi WNW 9.2 mph - -   Scattered Clouds
8:55 AM 69.8 °F - 60.8 °F 73% 29.83 in 6.2 mi NNW 4.6 mph - N/A   Partly Cloudy
9:55 AM 75.2 °F - 59.0 °F 57% 29.83 in 6.2 mi East 13.8 mph - N/A   Partly Cloudy
10:55 AM 78.8 °F - 59.0 °F 51% 29.80 in 6.2 mi West 9.2 mph - N/A   Partly Cloudy
11:00 AM 80 °F - 60 °F 40% 29.82 in 6 mi West 9.2 mph - -   Scattered Clouds
11:55 AM 82.4 °F 82.0 °F 57.2 °F 42% 29.80 in 6.2 mi WNW 8.1 mph - N/A   Partly Cloudy
12:55 PM 82.4 °F 81.4 °F 53.6 °F 37% 29.80 in 6.2 mi West 6.9 mph - N/A   Partly Cloudy
1:55 PM 84.2 °F 82.8 °F 53.6 °F 35% 29.80 in 6.2 mi WNW 10.4 mph - N/A   Partly Cloudy
2:00 PM 83 °F - 53 °F 25% 29.80 in 6 mi WNW 10.4 mph - -   Scattered Clouds
2:55 PM 84.2 °F 83.0 °F 55.4 °F 37% 29.80 in 6.2 mi West 11.5 mph - N/A   Partly Cloudy
3:55 PM 82.4 °F 82.0 °F 57.2 °F 42% 29.77 in 6.2 mi SW 5.8 mph - N/A   Partly Cloudy
4:55 PM 80.6 °F 81.5 °F 60.8 °F 51% 29.77 in 6.2 mi East 15.0 mph - N/A   Partly Cloudy
5:00 PM 80 °F - 61 °F 42% 29.79 in 6 mi East 15.0 mph - -   Scattered Clouds
5:55 PM 77.0 °F - 62.6 °F 61% 29.80 in 6.2 mi East 11.5 mph - N/A   Scattered Clouds
6:55 PM 75.2 °F - 66.2 °F 73% 29.80 in 6.2 mi East 9.2 mph - N/A   Scattered Clouds
7:55 PM 75.2 °F - 69.8 °F 83% 29.80 in 6.2 mi East 6.9 mph - N/A   Scattered Clouds
8:00 PM 75 °F - 69 °F 76% 29.82 in 6 mi East 6.9 mph - -   Scattered Clouds
8:55 PM 71.6 °F - 71.6 °F 100% 29.80 in 6.2 mi SE 4.6 mph - N/A   Mostly Cloudy
9:55 PM 71.6 °F - 69.8 °F 94% 29.83 in 6.2 mi WSW 3.5 mph - N/A   Scattered Clouds
10:55 PM 71.6 °F - 69.8 °F 94% 29.83 in 6.2 mi WSW 3.5 mph - N/A   Mostly Cloudy
11:00 PM 71 °F - 70 °F 97% 29.84 in 6 mi WSW 3.5 mph - -   Scattered Clouds
11:55 PM 69.8 °F - 69.8 °F 100% 29.83 in 6.2 mi WNW 4.6 mph - N/A   Scattered Clouds